GORIZONT 9 [-]

Last updated on Nov. 14, 2019, 4:22 a.m. UTC

1 14940U 84041A   19317.70895340 -.00000238  00000-0  00000+0 0  9995
2 14940  13.0690 332.6077 0002927 252.3214 172.6342  1.00309183 97888
UTC
Height (km)
Latitude
Longitude
Inclination
Orbital Period
UTC large
Height (km)
Speed (km/s)
/
Latitude / Longitude
Inclination (degrees)
Orbital Period (minutes)
Azimuth
Elevation
Range (km)
Doppler Factor
iOS Compass Heading
iOS Angle

Next 30 passes for location: Hong Kong

Rise time Rise Azimuth (degrees) Set time Set Azimuth (degrees) Duration Max altitude (degrees)

No matching passes for this satellites